Starlink 33678

operational
NORAD ID: 63509 Int'l Des: 2025-071 Owner: SPXS Country: US Constellation: starlink
LEOCIRCULAR

Über Starlink 33678

Beschreibung wird geladen...

Live-Position

3D-Globus wird geladen...

Nächste Überflüge

Höhenverlauf

Altitude vs Time

uPlot chart will show altitude changes over time

Zweizeiliger Elementsatz

1 63509U 25071S 25257.36894099 .00028909 00000-0 98391-3 0 9998
2 63509 53.1559 238.9308 0001103 84.1839 275.9287 15.30215862 25509
Epoch: 14. Sept. 2025 • Age: 25 hours

Aktueller Status

Höhe 480.2 km
Geschwindigkeit 7.63 km/s
Subsatellitenpunkt -18.26°S, 77.73°E
Startdatum 7. Apr. 2025
Alter 0.4 years
Typ internet

Technische Details

Klassifizierung Payload
Masse 575.00 kg
Trockenmasse 530.00 kg
Gesamtmasse 575.00 kg
Länge 0.30 m
Durchmesser 4.10 m
Spannweite 29.00 m
Form Box + pan
Hersteller SPXS
Bus-Typ Starlink V2MO
Phasenstatus In Orbit
Besitzer/Staat SPXS/US

Große Konstellationen

Loading constellations...